Weather in Negombo

Sri Lanka     7°12′37″N   79°50′31″E
temp.,
°C
wind,
m/s
gust,
m/s
humid.,
%
clouds,
%
prec.,
mm/h
press.,
hPa
HPBL,
m
27 september, mon
mon2723:30+27sw121484100 4.1 1008912
02:30+27wsw131683100 2.9 10061165
05:30+27wsw131782100 5.1 10071220
08:30+28wsw101580100 0.5 10091405
11:30+27wsw111682100 3.2 10091243
14:30+27w91381100 0.4 10051061
17:30+28w10167894 1.1 10061090
20:30+28wsw11168054 0.1 10091220
28 september, tue
tue2823:30+28wsw10157876 0.4 10091312
02:30+27wsw101580100 0.8 10071279
05:30+28wsw101580100 2.3 10071275
08:30+28wsw91478100 0.7 10101192
11:30+28wsw81480100 1.8 10091186
14:30+28wsw7137890 0.2 10071264
17:30+28wsw71280100 0.3 10081178
20:30+28wsw81182100 0.8 1010967
29 september, wed
wed2923:30+28wsw81183100 2.9 1010923
02:30+28wsw91181100 0.2 1008979
05:30+27wsw898199 0.5 1009789
08:30+27wsw7882100 4.7 1011596
11:30+27wsw6882100 7.4 1010603
14:30+28wsw688078 0.6 1007856
17:30+28wsw688099 0.6 1008890
20:30+28wsw578189 0.2 1010817
30 september, thu
thu3023:30+28wsw6981100 0.2 1009903
02:30+28wsw7981100 0.1 1008927
05:30+28w71083100 0.5 1008925
08:30+28w7983100 0.6 1010865
11:30+28w788150 1.9 1010796
14:30+28w7780100 0.3 1007795
17:30+28wnw4478100 0.4 1007584
20:30+28w3480100 0.4 1010460
1 october, fri
fri123:30+28wsw5580100 1.8 1009648
02:30+27wsw5580100 3.9 1007482
05:30+25sw5585100 8.6 1009446
08:30+25ssw3489100 5.5 1010348
11:30+24w2394100 20.8 1009282
14:30+24nw2391100 3.7 1006308
17:30+25wnw4489100 11.1 1007487
20:30+25w4690100 6.3 1009494